Hourly Data Report for February 02, 2019

TORONTO INTL A
ONTARIO
Current Station Operator: NAVCAN

43°40'36.000" N
79°37'50.000" W
173.40 m
6158731
71624
YYZ

Download Data

Hourly Data (February 2019)
Hourly Data Report for February 2, 2019
TIME
LST
Temp Definition
°C
Dew Point Definition
°C
Rel Hum Definition
%
Precip. Amount Definition
mm

Wind Dir Definition
10's deg

Wind Spd Definition
km/h
Visibility Definition
km
Stn Press Definition
kPa
Hmdx Definition


Wind Chill Definition


Weather Definition


00:00 -15.5 -21.4 61   26 12 24.1 100.52   -23 LegendNANA
01:00 -14.8 -20.9 60   24 13 24.1 100.47   -22 Mostly Cloudy
02:00 -14.3 -20.6 59   21 7 24.1 100.40   -19 LegendNANA
03:00 -14.3 -20.6 59   18 8 24.1 100.40   -20 LegendNANA
04:00 -13.3 -19.1 62   22 9 24.1 100.26   -19 Mostly Cloudy
05:00 -12.6 -17.8 65   21 11 24.1 100.14   -19 LegendNANA
06:00 -11.9 -16.8 67   20 14 24.1 100.12   -19 LegendNANA
07:00 -10.9 -15.6 68   21 19 24.1 99.95   -19 Cloudy
08:00 -9.6 -14.3 69   22 21 24.1 99.91   -18 LegendNANA
09:00 -8.9 -13.4 70   22 17 24.1 99.85   -16 LegendNANA
10:00 -7.8 -12.0 72   21 15 19.3 99.76   -14 Cloudy
11:00 -6.0 -10.1 73   22 16 19.3 99.66   -12 LegendNANA
12:00 -3.8 -7.8 74   23 18 16.1 99.57   -10 LegendNANA
13:00 -2.7 -6.8 73   21 17 16.1 99.42   -8 Cloudy
14:00 -1.6 -5.9 73   24 14 16.1 99.36   -6 LegendNANA
15:00 -0.4 -4.5 74   25 18 16.1 99.32   -5 LegendNANA
16:00 0.3 -3.7 75   26 16 16.1 99.33     Cloudy
17:00 0.8 -2.7 77   29 18 12.9 99.37     LegendNANA
18:00 0.8 -2.3 80   27 26 12.9 99.42     LegendNANA
19:00 0.3 -2.5 82   26 13 9.7 99.49     Fog
20:00 0.1 -2.3 84   28 10 8.1 99.54     Fog
21:00 -0.2 -2.4 85   27 7 6.4 99.57   -3 Snow, Fog
22:00 0.1 -1.8 87   22 5 6.4 99.60     Snow, Fog
23:00 0.0 -1.7 88   15 4 3.2 99.60   -1 Freezing Drizzle, Snow, Fog

Notes on Data Quality.

Legend

  • E = Estimated
  • M = Missing
  • NA = Not Available*
  • [empty] = Indicates an unobserved value
Date modified: